Погода в Таразе

Погода в Таразе : погода сейчас, прогноз погоды и архив. Всё, что Вы хотите узнать о погоде в Таразе!

Поиск расширенной информации на нашем сайте:

Другие новости

Новости СМИ2

Главная страница сайта

Новости сайта

03.07.2017

Напоминаем, что на нашем специализированном сайте Метеоцентр.Азия вы можете получить высокодетализированные автоматические прогнозы погоды по пунктам России, СНГ и мира в авиационном формате (включающие направление и скорость ветра, видимость, явления погоды, количество и форму облачности, нижнюю и верхнюю границу облачности).


Погода в Таразе - сегодня

Время (UTC), дата Ветер
(°,м/с) 
Видим.   Явления Облачность Т
(°С)
Тd
(°С)
f(%) Тe
(°С)
Pmin
(гПа)
dP
(гПа)
Po
(мм)
O2
(г/м3)
Тmin Tmax R s Состояние
почвы
18 16.10.17 320 (СЗ) 10 км    ясно 
+13.3 +6.7 64 +15  1015.2  -0.6  705  270         
21 16.10.17 тихо ()   10 км    8/0 средняя, верхняя 
[Ac lent|Ci fib]
+14.5 +6.2 57 +15  1013.6  -1.2  704  268           
00 17.10.17 тихо ()   10 км    ясно 
+9.8 +4.6 70 +10  1014.1  -0.7  704  273           
03 17.10.17 210 (ЮЗ) 20000 м    4/3 1000 м верхняя 
[Sc diur, vesp|Ci fib]
+11.3 +5.1 66 +12  1013.8  704  271           
06 17.10.17 тихо ()   20000 м    3/1 1000 м верхняя 
[Sc diur, vesp|Ci fib]
+22.8 +3.4 28 +23  1009.5  -1.2  703  261  +7.9         
09 17.10.17 040 (СВ) 20000 м    6/0 верхняя 
[Ci fib]
+24.5 +2.5 24 +25  1007.4  -1.6  702  259           
12 17.10.17 030 (СВ) 20000 м    4/0 верхняя 
[Ci fib]
+22.5 +3.2 28 +23  1006.5  -1.2  701  260           
15 17.10.17 тихо ()   10 км    ясно 
+13.9 +5.9 58 +14  1008.2  -0.5  700  267    +24.6       
18 17.10.17 140 (ЮВ) 10 км    ясно 
+14.9 +2.7 44 +16  1004.7  -3.1  698  266    +24.6       
21 17.10.17 230 (ЮЗ) 18-20{24}  10 км    10/10 1000 м 
[Sc diur, vesp]
+15.2 +6.8 57 +13  1007.4  2.7  700  266           
00 18.10.17 250 (З) 20-23{27}  10 км    10/10 1000 м 
[Sc diur, vesp]
+11 +4.1 62 +7  1010.1  1.4  701  271           
03 18.10.17 230 (ЮЗ) 12{23}  20000 м  в посл. час ливневой дождь  10/10 600 м кучево-дожд. 
[Cb cap]
+6.5 +3.2 79 +3  1016.7  4.9  705  277      0.0     
06 18.10.17 240 (ЮЗ) 20000 м  {ливн. осадки}  10/10 600 м кучево-дожд. 
[Cb cap]
+8.8 +1.9 62 +6  1018.8  2.5  707  275  +6.3    0.0     
09 18.10.17 030 (СВ) 20000 м    9/6 1000 м средняя 
[Sc diur, vesp|Ac lent]
+10.2 +3 61 +9  1020  1.5  708  274           
12 18.10.17 270 (З) 20000 м    8/6 600 м кучево-дожд., средняя 
[Cb cap|Ac lent]
+10.6 +2.5 57 +10  1021.2  1.2  709  274           
15 18.10.17 290 (З) 10 км  {ливн. осадки}  10/10 600 м кучево-дожд. 
[Cb cap]
+7.5 +2.7 72 +7  1025.4  3.1  711  278    +13.2  0.3     
18 18.10.17 220 (ЮЗ) 10 км  в посл. час ливневой дождь  10/10 600 м кучево-дожд. 
[Cb cap]
+6.7 +3.9 82 +8  1026.2  0.5  711  279    +13.2  0.3     
21 18.10.17 230 (ЮЗ) 10 км    9/9 600 м кучево-дожд. 
[Cb cap]
+5.9 +1.9 75 +4  1025.8  -0.5  711  280           
00 19.10.17 250 (З) 10 км    4/4 1000 м 
[Sc diur, vesp]
+6.7 +2.1 72 +4  1026.4  0.7  712  279           
03 19.10.17 140 (ЮВ) 20000 м    8/6 600 м кучево-дожд., средняя 
[Cb cap|Ac lent]
+7 +2.9 75 +6  1027.4  712  279      0.0     
06 19.10.17 230 (ЮЗ) 20000 м    10/6 1000 м средняя 
[Sc diur, vesp|Ac lent]
+12.4 +1.7 48 +12  1026.3  0.4  713  274  +5.7    0.0     
09 19.10.17 230 (ЮЗ) 12-16{17}  20000 м    4/4 1000 м 
[Sc diur, vesp]
+15.9 +1.9 39 +15  1023  -2.2  711  270           
12 19.10.17 260 (З) 4{16}  20000 м    10/6 1000 м средняя, верхняя 
[Sc diur, vesp|Ac lent|Ci fib]
+14.2 +2.5 45 +14  1026.3  2.6  713  273           
15 19.10.17 230 (ЮЗ) 10 км    4/0 верхняя 
[Ci sp]
+11.7 +3.6 58 +11  1028.4  1.4  714  275    +16.4       
18 19.10.17 190 (Ю) 10 км    ясно 
+9.7 +3 63 +10  1029.3  0.4  714  277    +16.4       
Время (UTC), дата Ветер
(°,м/с) 
Видим.   Явления Облачность Т
(°С)
Тd
(°С)
f(%) Тe
(°С)
Pmin
(гПа)
dP
(гПа)
Po
(мм)
O2
(г/м3)
Тmin Tmax R s Состояние
почвы

Для получения пояснительной информации подведите курсор к названию столбца.

ПОГОДА в Таразе - архив

Всё, что Вы хотите узнать о погоде в Таразе - удобно и подробно!

Выберите нужную дату (начиная с 1 января 2015* года) и нажмите кнопку "Найти".
Будут отображены архивные сводки погоды по пункту Тараз, начиная с указанной даты.


Отображать данные в формате CSV (для использования в таблицах Excel)


Внимание! Наш архив погоды предназначен исключительно для личного некоммерческого использования в познавательных целях. Если Вам необходимы официальные справки о состоянии погоды (для производственных, юридических, коммерческих и т.п. целей), обращайтесь в органы Росгидромета.

*Примечание: данная дата относится к архиву по метеостанциям СССР (Россия, СНГ, Балтия).
Архив по метеостанциям Зарубежной Европы и Азии (кроме Китая) хранится 10 дней, по другим регионам земного шара (Китай, Африка, Америка, Австралия, Океания) - 1 день.

Тараз - район местоположения метеостанции


Название, широта, долгота, высота метеостанции:
Тараз (город) 42.9°ш. 71.4°д. 651 м над ур. моря [Казахстан]

Дополнительная информация

В oтличие oт бoльшинства пoгoдных сайтoв мы публикуем пoдрoбную метеoинфoрмацию в детальнoм прoфессиoнальнoм фoрмате.

Характеристики температуры и влажнoсти вoздуха измеряются на высoте 2 м в тени вдали oт зданий и деревьев.
Скoрoсть ветра измеряется на высoте 10 м (на урoвне рoста челoвека скoрoсть ветра ниже в 1.5-2 раза). Если метеoстанция нахoдится в гoрoде или в лесу, тo скoрoсть ветра занижена на 2-4 м/с пo сравнению с oткрытым местoм. Скoрoсть ветра над акватoриями крупных рек и oзёр, а также на вершинах хoлмoв на 2-5 м/с выше, чем в oбычных услoвиях.
Атмoсфернoе давление в разных тoчках местнoсти мoжет значительнo oтличаться oт давления на метеoстанции, в зависимoсти oт услoвий рельефа (при пoдъёме на 10 м давление пoнижается примернo на 1 мм рт.ст.).